sat.trackr.live / text

‹ back to catalog

STARLINK-30540

NORAD 58002 · 2023-153M

PAYLOAD ACTIVE UNKNOWN

§ Identity

Operator
Country
US
Launch date
2023-10-05
Launch site
AFETR
Launch vehicle
Mass (kg)
RCS (m²)

Purposes: comms

External: N2YO · Heavens-Above · Gunter

§ Orbital elements

Epoch: 2026-05-24T23:03:50.956416Z

Period
94.27 min
Inclination
43.0050°
Eccentricity
0.0001544
Mean motion
15.27579985 rev/d
Perigee alt
482.0 km
Apogee alt
484.1 km
Semi-major
6,861.2 km
B*
4.7679e-5
RAAN
356.0798°
Arg perigee
266.2562°
Mean anomaly
93.8114°
Rev number
14,646

§ Raw data

STARLINK-305401 58002U 23153M   26144.96100644  .00001050  00000+0  47679-4 0  99982 58002  43.0050 356.0798 0001544 266.2562  93.8114 15.27579985146465

JSON: /api/v1/satellites/58002 · /tle

For live sub-satellite position, see the globe view (requires WebGL).

§ Visibility from observer

Set your observer location to see the next 7 days of passes ≥ 10°. The values pass through the URL so the page stays shareable.

No JS? Fill the form by hand. The geolocation button needs JavaScript.